• In Hungary
  • List of Countries
  • For 7 days
  • Water Temperature
  • Satellite Maps
  • Weather Map
  • News
  • Weather Widgets
  • user-avatar
    Login

    Hourly Weather Schorndorf

    Today, 19 November, Sunday

    Time Temperature Precipitation Wind Pressure Humidity
    00:00 +1°C° 0.1 mm 5 mps 739 mmHg 82%
    01:00 +1°C° 0.1 mm 5 mps 739 mmHg 82%
    02:00 +1°C° 0.7 mm 5 mps 738 mmHg 83%
    03:00 +2°C° 0.7 mm 5 mps 737 mmHg 85%
    04:00 +2°C° 0.7 mm 6 mps 737 mmHg 87%
    05:00 +2°C° 0.3 mm 6 mps 737 mmHg 88%
    06:00 +2°C° 0.3 mm 5 mps 737 mmHg 89%
    07:00 +2°C° 0.3 mm 5 mps 737 mmHg 90%
    08:00 +2°C° 0.2 mm 5 mps 737 mmHg 89%
    09:00 +3°C° 0.2 mm 5 mps 738 mmHg 87%
    10:00 +3°C° 0.2 mm 5 mps 738 mmHg 86%
    11:00 +3°C° 0 mm 5 mps 738 mmHg 82%
    12:00 +5°C° 0 mm 5 mps 739 mmHg 78%
    13:00 +5°C° 0 mm 5 mps 739 mmHg 74%
    14:00 +5°C° 0 mm 4 mps 739 mmHg 76%
    15:00 +4°C° 0 mm 4 mps 739 mmHg 79%
    16:00 +3°C° 0 mm 4 mps 739 mmHg 81%
    17:00 +3°C° 0 mm 4 mps 740 mmHg 83%
    18:00 +1°C° 0 mm 4 mps 740 mmHg 85%
    19:00 +1°C° 0 mm 4 mps 741 mmHg 88%
    20:00 +1°C° 0 mm 4 mps 741 mmHg 88%
    21:00 +1°C° 0 mm 4 mps 741 mmHg 89%
    22:00 +1°C° 0 mm 4 mps 742 mmHg 89%
    23:00 +1°C° 0.1 mm 4 mps 742 mmHg 90%

    Tomorrow, 20 November, Monday

    Time Temperature Precipitation Wind Pressure Humidity
    00:00 +1°C° 0.1 mm 4 mps 742 mmHg 90%
    01:00 +1°C° 0.1 mm 4 mps 743 mmHg 91%
    02:00 0°C° 0 mm 4 mps 743 mmHg 91%
    03:00 +1°C° 0 mm 3 mps 742 mmHg 92%
    04:00 0°C° 0 mm 3 mps 742 mmHg 93%
    05:00 0°C° 0 mm 3 mps 742 mmHg 93%
    06:00 0°C° 0 mm 3 mps 742 mmHg 92%
    07:00 -1°C° 0 mm 2 mps 742 mmHg 92%
    08:00 0°C° 0 mm 3 mps 742 mmHg 88%
    09:00 +1°C° 0 mm 3 mps 742 mmHg 84%
    10:00 +2°C° 0 mm 3 mps 742 mmHg 80%
    11:00 +3°C° 0 mm 3 mps 742 mmHg 78%
    12:00 +3°C° 0 mm 3 mps 741 mmHg 75%
    13:00 +4°C° 0 mm 3 mps 741 mmHg 73%
    14:00 +4°C° 0.1 mm 3 mps 740 mmHg 74%
    15:00 +4°C° 0.1 mm 3 mps 740 mmHg 74%
    16:00 +4°C° 0.1 mm 4 mps 739 mmHg 75%
    17:00 +4°C° 0 mm 4 mps 739 mmHg 75%
    18:00 +4°C° 0 mm 4 mps 739 mmHg 76%
    19:00 +3°C° 0 mm 5 mps 738 mmHg 76%
    20:00 +3°C° 0 mm 5 mps 738 mmHg 78%
    21:00 +5°C° 0 mm 5 mps 738 mmHg 81%
    22:00 +5°C° 0 mm 5 mps 738 mmHg 83%
    23:00 +5°C° 0.3 mm 5 mps 738 mmHg 84%

    Day after tomorrow, 21 November, Tuesday

    Time Temperature Precipitation Wind Pressure Humidity
    00:00 +4°C° 0.3 mm 6 mps 738 mmHg 85%
    01:00 +4°C° 0.3 mm 6 mps 738 mmHg 87%
    02:00 +4°C° 0.4 mm 6 mps 738 mmHg 87%
    03:00 +4°C° 0.4 mm 6 mps 738 mmHg 88%
    04:00 +4°C° 0.4 mm 6 mps 738 mmHg 88%
    05:00 +4°C° 0.3 mm 6 mps 738 mmHg 88%
    06:00 +4°C° 0.3 mm 6 mps 738 mmHg 88%
    07:00 +5°C° 0.3 mm 5 mps 738 mmHg 89%
    08:00 +6°C° 0.1 mm 5 mps 738 mmHg 87%
    09:00 +6°C° 0.1 mm 5 mps 738 mmHg 86%
    10:00 +7°C° 0.1 mm 5 mps 739 mmHg 85%
    11:00 +7°C° 0.1 mm 5 mps 738 mmHg 85%
    12:00 +7°C° 0.1 mm 4 mps 738 mmHg 85%
    13:00 +7°C° 0.1 mm 4 mps 738 mmHg 85%
    14:00 +7°C° 0.1 mm 4 mps 738 mmHg 85%
    15:00 +8°C° 0.1 mm 3 mps 738 mmHg 85%
    16:00 +8°C° 0.1 mm 3 mps 738 mmHg 86%
    17:00 +7°C° 0 mm 3 mps 738 mmHg 87%
    18:00 +7°C° 0 mm 3 mps 738 mmHg 88%
    19:00 +5°C° 0 mm 3 mps 738 mmHg 89%
    20:00 +5°C° 0 mm 3 mps 738 mmHg 88%
    21:00 +6°C° 0 mm 2 mps 738 mmHg 88%
    22:00 +5°C° 0 mm 2 mps 738 mmHg 87%
    23:00 +5°C° 0 mm 2 mps 737 mmHg 87%

    22 November, Wednesday

    Time Temperature Precipitation Wind Pressure Humidity
    00:00 +5°C° 0 mm 2 mps 737 mmHg 86%
    01:00 +5°C° 0 mm 2 mps 737 mmHg 86%
    02:00 +5°C° 0 mm 2 mps 737 mmHg 86%
    03:00 +4°C° 0 mm 2 mps 737 mmHg 86%
    04:00 +4°C° 0 mm 2 mps 737 mmHg 85%
    05:00 +4°C° 0 mm 2 mps 737 mmHg 85%
    06:00 +4°C° 0 mm 2 mps 737 mmHg 85%
    07:00 +4°C° 0 mm 2 mps 737 mmHg 85%
    08:00 +4°C° 0 mm 3 mps 737 mmHg 82%
    09:00 +5°C° 0 mm 3 mps 737 mmHg 78%
    10:00 +8°C° 0 mm 3 mps 737 mmHg 74%
    11:00 +9°C° 0 mm 3 mps 737 mmHg 71%
    12:00 +10°C° 0 mm 3 mps 737 mmHg 68%
    13:00 +12°C° 0 mm 3 mps 736 mmHg 65%
    14:00 +12°C° 0 mm 2 mps 736 mmHg 69%
    15:00 +10°C° 0 mm 2 mps 736 mmHg 74%
    16:00 +9°C° 0 mm 2 mps 736 mmHg 78%
    17:00 +8°C° 0 mm 2 mps 736 mmHg 78%
    18:00 +7°C° 0 mm 2 mps 736 mmHg 77%
    19:00 +6°C° 0 mm 2 mps 736 mmHg 77%
    20:00 +6°C° 0 mm 2 mps 736 mmHg 75%
    21:00 +6°C° 0 mm 2 mps 736 mmHg 74%
    22:00 +6°C° 0 mm 2 mps 736 mmHg 72%
    23:00 +6°C° 0 mm 2 mps 736 mmHg 71%

    23 November, Thursday

    Time Temperature Precipitation Wind Pressure Humidity
    00:00 +6°C° 0 mm 2 mps 736 mmHg 70%
    01:00 +5°C° 0 mm 2 mps 736 mmHg 70%
    02:00 +5°C° 0 mm 2 mps 736 mmHg 70%
    03:00 +5°C° 0 mm 2 mps 736 mmHg 69%
    04:00 +5°C° 0 mm 2 mps 736 mmHg 69%
    05:00 +5°C° 0 mm 2 mps 736 mmHg 69%
    06:00 +5°C° 0 mm 2 mps 736 mmHg 69%
    07:00 +5°C° 0 mm 2 mps 737 mmHg 70%
    08:00 +5°C° 0 mm 3 mps 737 mmHg 67%
    09:00 +8°C° 0 mm 3 mps 737 mmHg 64%
    10:00 +9°C° 0 mm 3 mps 738 mmHg 62%
    11:00 +10°C° 0 mm 3 mps 738 mmHg 61%
    12:00 +12°C° 0 mm 3 mps 738 mmHg 60%
    13:00 +13°C° 0 mm 3 mps 738 mmHg 59%
    14:00 +12°C° 0 mm 3 mps 738 mmHg 63%
    15:00 +11°C° 0 mm 3 mps 738 mmHg 68%
    16:00 +10°C° 0 mm 2 mps 738 mmHg 72%
    17:00 +10°C° 0 mm 2 mps 739 mmHg 72%
    18:00 +9°C° 0 mm 2 mps 739 mmHg 72%
    19:00 +8°C° 0 mm 2 mps 739 mmHg 72%
    20:00 +8°C° 0 mm 2 mps 740 mmHg 72%
    21:00 +8°C° 0 mm 2 mps 740 mmHg 71%
    22:00 +8°C° 0 mm 2 mps 740 mmHg 71%
    23:00 +8°C° 0 mm 2 mps 740 mmHg 71%

    24 November, Friday

    Time Temperature Precipitation Wind Pressure Humidity
    00:00 +8°C° 0 mm 2 mps 740 mmHg 72%
    01:00 +8°C° 0 mm 2 mps 740 mmHg 72%
    02:00 +7°C° 0 mm 2 mps 740 mmHg 73%
    03:00 +7°C° 0 mm 2 mps 740 mmHg 73%
    04:00 +7°C° 0 mm 2 mps 740 mmHg 73%
    05:00 +7°C° 0 mm 2 mps 740 mmHg 72%
    06:00 +6°C° 0 mm 2 mps 740 mmHg 72%
    07:00 +6°C° 0 mm 2 mps 740 mmHg 71%
    08:00 +7°C° 0 mm 2 mps 740 mmHg 68%
    09:00 +8°C° 0 mm 3 mps 740 mmHg 65%
    10:00 +9°C° 0 mm 3 mps 740 mmHg 62%
    11:00 +11°C° 0 mm 3 mps 739 mmHg 59%
    12:00 +12°C° 0 mm 3 mps 739 mmHg 56%
    13:00 +14°C° 0 mm 3 mps 738 mmHg 53%
    14:00 +13°C° 0 mm 3 mps 738 mmHg 57%
    15:00 +12°C° 0 mm 3 mps 738 mmHg 60%
    16:00 +12°C° 0 mm 2 mps 738 mmHg 64%
    17:00 +10°C° 0 mm 2 mps 738 mmHg 64%
    18:00 +10°C° 0 mm 2 mps 738 mmHg 64%
    19:00 +9°C° 0 mm 3 mps 738 mmHg 64%
    20:00 +9°C° 0 mm 2 mps 739 mmHg 64%
    21:00 +9°C° 0 mm 2 mps 739 mmHg 65%
    22:00 +9°C° 0 mm 2 mps 739 mmHg 65%
    23:00 +9°C° 0 mm 2 mps 739 mmHg 65%
    Show more